"Time","Value","Approval","myLocation"
"2023-05-06 00:00",21.6924572427934,"Working","OW424"
"2023-05-06 01:00",21.6954518152213,"Working","OW424"
"2023-05-06 02:00",21.6974463876493,"Working","OW424"
"2023-05-06 03:00",21.6974409600772,"Working","OW424"
"2023-05-06 04:00",21.6944355325051,"Working","OW424"
"2023-05-06 05:00",21.6864301049331,"Working","OW424"
"2023-05-06 06:00",21.678424677361,"Working","OW424"
"2023-05-06 07:00",21.6734192497889,"Working","OW424"
"2023-05-06 08:00",21.6714138222169,"Working","OW424"
"2023-05-06 09:00",21.6704083946448,"Working","OW424"
"2023-05-06 10:00",21.6724029670727,"Working","OW424"
"2023-05-06 11:00",21.6753975395007,"Working","OW424"
"2023-05-06 12:00",21.6803921119286,"Working","OW424"
"2023-05-06 13:00",21.6863866843565,"Working","OW424"
"2023-05-06 14:00",21.6903812567845,"Working","OW424"
"2023-05-06 15:00",21.6973758292124,"Working","OW424"
"2023-05-06 16:00",21.7033704016403,"Working","OW424"
"2023-05-06 17:00",21.7093649740683,"Working","OW424"
"2023-05-06 18:00",21.7163595464962,"Working","OW424"
"2023-05-06 19:00",21.7223541189241,"Working","OW424"
"2023-05-06 20:00",21.7283486913521,"Working","OW424"
"2023-05-06 21:00",21.73134326378,"Working","OW424"
"2023-05-06 22:00",21.7303378362079,"Working","OW424"
"2023-05-06 23:00",21.7233324086359,"Working","OW424"
"2023-05-07 00:00",21.7143269810638,"Working","OW424"
"2023-05-07 01:00",21.7043215534917,"Working","OW424"
"2023-05-07 02:00",21.6993161259197,"Working","OW424"
"2023-05-07 03:00",21.6953106983476,"Working","OW424"
"2023-05-07 04:00",21.6953052707755,"Working","OW424"
"2023-05-07 05:00",21.6952998432035,"Working","OW424"
"2023-05-07 06:00",21.6972944156314,"Working","OW424"
"2023-05-07 07:00",21.7022889880593,"Working","OW424"
"2023-05-07 08:00",21.7062835604873,"Working","OW424"
"2023-05-07 09:00",21.7122781329152,"Working","OW424"
"2023-05-07 10:00",21.7172727053431,"Working","OW424"
"2023-05-07 11:00",21.7212672777711,"Working","OW424"
"2023-05-07 12:00",21.721261850199,"Working","OW424"
"2023-05-07 13:00",21.7172564226269,"Working","OW424"
"2023-05-07 14:00",21.7092509950549,"Working","OW424"
"2023-05-07 15:00",21.6962455674828,"Working","OW424"
"2023-05-07 16:00",21.6832401399107,"Working","OW424"
"2023-05-07 17:00",21.6732347123387,"Working","OW424"
"2023-05-07 18:00",21.6672292847666,"Working","OW424"
"2023-05-07 19:00",21.6662238571945,"Working","OW424"
"2023-05-07 20:00",21.6662184296225,"Working","OW424"
"2023-05-07 21:00",21.6692130020504,"Working","OW424"
"2023-05-07 22:00",21.6742075744784,"Working","OW424"
"2023-05-07 23:00",21.6802021469063,"Working","OW424"
"2023-05-08 00:00",21.6861967193342,"Working","OW424"
"2023-05-08 01:00",21.6931912917622,"Working","OW424"
"2023-05-08 02:00",21.6991858641901,"Working","OW424"
"2023-05-08 03:00",21.706180436618,"Working","OW424"
"2023-05-08 04:00",21.711175009046,"Working","OW424"
"2023-05-08 05:00",21.7161695814739,"Working","OW424"
"2023-05-08 06:00",21.7221641539018,"Working","OW424"
"2023-05-08 07:00",21.7271587263298,"Working","OW424"
"2023-05-08 08:00",21.7331532987577,"Working","OW424"
"2023-05-08 09:00",21.7381478711856,"Working","OW424"
"2023-05-08 10:00",21.7421424436136,"Working","OW424"
"2023-05-08 11:00",21.7441370160415,"Working","OW424"
"2023-05-08 12:00",21.7481315884694,"Working","OW424"
"2023-05-08 13:00",21.7491261608974,"Working","OW424"
"2023-05-08 14:00",21.7491207333253,"Working","OW424"
"2023-05-08 15:00",21.7511153057532,"Working","OW424"
"2023-05-08 16:00",21.7531098781812,"Working","OW424"
"2023-05-08 17:00",21.7541044506091,"Working","OW424"
"2023-05-08 18:00",21.755099023037,"Working","OW424"
"2023-05-08 19:00",21.753093595465,"Working","OW424"
"2023-05-08 20:00",21.7520881678929,"Working","OW424"
"2023-05-08 21:00",21.7520827403208,"Working","OW424"
"2023-05-08 22:00",21.7460773127488,"Working","OW424"
"2023-05-08 23:00",21.7370718851767,"Working","OW424"
"2023-05-09 00:00",21.7270664576046,"Working","OW424"
"2023-05-09 01:00",21.7170610300326,"Working","OW424"
"2023-05-09 02:00",21.7100556024605,"Working","OW424"
"2023-05-09 03:00",21.7040501748884,"Working","OW424"
"2023-05-09 04:00",21.7010447473164,"Working","OW424"
"2023-05-09 05:00",21.7040393197443,"Working","OW424"
"2023-05-09 06:00",21.7070338921722,"Working","OW424"
"2023-05-09 07:00",21.7120284646002,"Working","OW424"
"2023-05-09 08:00",21.7190230370281,"Working","OW424"
"2023-05-09 09:00",21.726017609456,"Working","OW424"
"2023-05-09 10:00",21.733012181884,"Working","OW424"
"2023-05-09 11:00",21.7410067543119,"Working","OW424"
"2023-05-09 12:00",21.7470013267398,"Working","OW424"
"2023-05-09 13:00",21.7529958991678,"Working","OW424"
"2023-05-09 14:00",21.7599904715957,"Working","OW424"
"2023-05-09 15:00",21.7639850440236,"Working","OW424"
"2023-05-09 16:00",21.7669796164516,"Working","OW424"
"2023-05-09 17:00",21.7649741888795,"Working","OW424"
"2023-05-09 18:00",21.7579687613074,"Working","OW424"
"2023-05-09 19:00",21.7489633337354,"Working","OW424"
"2023-05-09 20:00",21.7419579061633,"Working","OW424"
"2023-05-09 21:00",21.7359524785912,"Working","OW424"
"2023-05-09 22:00",21.7329470510192,"Working","OW424"
"2023-05-09 23:00",21.7329416234471,"Working","OW424"
"2023-05-10 00:00",21.732936195875,"Working","OW424"
"2023-05-10 01:00",21.734930768303,"Working","OW424"
"2023-05-10 02:00",21.7389253407309,"Working","OW424"
"2023-05-10 03:00",21.7419199131588,"Working","OW424"
"2023-05-10 04:00",21.7449144855868,"Working","OW424"
"2023-05-10 05:00",21.7499090580147,"Working","OW424"
"2023-05-10 06:00",21.7539036304426,"Working","OW424"
"2023-05-10 07:00",21.7578982028706,"Working","OW424"
"2023-05-10 08:00",21.7618927752985,"Working","OW424"
"2023-05-10 09:00",21.7658873477265,"Working","OW424"
"2023-05-10 10:00",21.7688819201544,"Working","OW424"
"2023-05-10 11:00",21.7728764925823,"Working","OW424"
"2023-05-10 12:00",21.7758710650103,"Working","OW424"
"2023-05-10 13:00",21.7778656374382,"Working","OW424"
"2023-05-10 14:00",21.7758602098661,"Working","OW424"
"2023-05-10 15:00",21.7718547822941,"Working","OW424"
"2023-05-10 16:00",21.763849354722,"Working","OW424"
"2023-05-10 17:00",21.7528439271499,"Working","OW424"
"2023-05-10 18:00",21.7378384995779,"Working","OW424"
"2023-05-10 19:00",21.7248330720058,"Working","OW424"
"2023-05-10 20:00",21.7148276444337,"Working","OW424"
"2023-05-10 21:00",21.7058222168617,"Working","OW424"
"2023-05-10 22:00",21.6998167892896,"Working","OW424"
"2023-05-10 23:00",21.6958113617175,"Working","OW424"
"2023-05-11 00:00",21.6928059341455,"Working","OW424"
"2023-05-11 01:00",21.6928005065734,"Working","OW424"
"2023-05-11 02:00",21.6927950790013,"Working","OW424"
"2023-05-11 03:00",21.6947896514293,"Working","OW424"
"2023-05-11 04:00",21.6987842238572,"Working","OW424"
"2023-05-11 05:00",21.7047787962851,"Working","OW424"
"2023-05-11 06:00",21.7127733687131,"Working","OW424"
"2023-05-11 07:00",21.719767941141,"Working","OW424"
"2023-05-11 08:00",21.7277625135689,"Working","OW424"
"2023-05-11 09:00",21.7337570859969,"Working","OW424"
"2023-05-11 10:00",21.7417516584248,"Working","OW424"
"2023-05-11 11:00",21.7497462308527,"Working","OW424"
"2023-05-11 12:00",21.7567408032807,"Working","OW424"
"2023-05-11 13:00",21.7627353757086,"Working","OW424"
"2023-05-11 14:00",21.7687299481365,"Working","OW424"
"2023-05-11 15:00",21.7757245205645,"Working","OW424"
"2023-05-11 16:00",21.7807190929924,"Working","OW424"
"2023-05-11 17:00",21.7847136654203,"Working","OW424"
"2023-05-11 18:00",21.7837082378483,"Working","OW424"
"2023-05-11 19:00",21.7787028102762,"Working","OW424"
"2023-05-11 20:00",21.7676973827041,"Working","OW424"
"2023-05-11 21:00",21.7556919551321,"Working","OW424"
"2023-05-11 22:00",21.74168652756,"Working","OW424"
"2023-05-11 23:00",21.7316810999879,"Working","OW424"
"2023-05-12 00:00",21.7266756724159,"Working","OW424"
"2023-05-12 01:00",21.7226702448438,"Working","OW424"
"2023-05-12 02:00",21.7176648172717,"Working","OW424"
"2023-05-12 03:00",21.7166593896997,"Working","OW424"
"2023-05-12 04:00",21.7186539621276,"Working","OW424"
"2023-05-12 05:00",21.7236485345555,"Working","OW424"
"2023-05-12 06:00",21.7296431069835,"Working","OW424"
"2023-05-12 07:00",21.7346376794114,"Working","OW424"
"2023-05-12 08:00",21.7416322518393,"Working","OW424"
"2023-05-12 09:00",21.7466268242673,"Working","OW424"
"2023-05-12 10:00",21.7526213966952,"Working","OW424"
"2023-05-12 11:00",21.7596159691231,"Working","OW424"
"2023-05-12 12:00",21.7656105415511,"Working","OW424"
"2023-05-12 13:00",21.770605113979,"Working","OW424"
"2023-05-12 14:00",21.7755996864069,"Working","OW424"
"2023-05-12 15:00",21.7775942588349,"Working","OW424"
"2023-05-12 16:00",21.7745888312628,"Working","OW424"
"2023-05-12 17:00",21.7655834036907,"Working","OW424"
"2023-05-12 18:00",21.7545779761187,"Working","OW424"
"2023-05-12 19:00",21.7445725485466,"Working","OW424"
"2023-05-12 20:00",21.7365671209745,"Working","OW424"
"2023-05-12 21:00",21.7325616934025,"Working","OW424"
"2023-05-12 22:00",21.7305562658304,"Working","OW424"
"2023-05-12 23:00",21.7315508382584,"Working","OW424"
"2023-05-13 00:00",21.7345454106863,"Working","OW424"
"2023-05-13 01:00",21.7385399831142,"Working","OW424"
"2023-05-13 02:00",21.7425345555422,"Working","OW424"
"2023-05-13 03:00",21.7485291279701,"Working","OW424"
"2023-05-13 04:00",21.752523700398,"Working","OW424"
"2023-05-13 05:00",21.758518272826,"Working","OW424"
"2023-05-13 06:00",21.7645128452539,"Working","OW424"
"2023-05-13 07:00",21.7685074176818,"Working","OW424"
"2023-05-13 08:00",21.7685019901098,"Working","OW424"
"2023-05-13 09:00",21.7654965625377,"Working","OW424"
"2023-05-13 10:00",21.7574911349656,"Working","OW424"
"2023-05-13 11:00",21.7444857073936,"Working","OW424"
"2023-05-13 12:00",21.7344802798215,"Working","OW424"
"2023-05-13 13:00",21.7264748522494,"Working","OW424"
"2023-05-13 14:00",21.7214694246774,"Working","OW424"
"2023-05-13 15:00",21.7214639971053,"Working","OW424"
"2023-05-13 16:00",21.7224585695332,"Working","OW424"
"2023-05-13 17:00",21.7214531419612,"Working","OW424"
"2023-05-13 18:00",21.7184477143891,"Working","OW424"
"2023-05-13 19:00",21.709442286817,"Working","OW424"
"2023-05-13 20:00",21.699436859245,"Working","OW424"
"2023-05-13 21:00",21.6924314316729,"Working","OW424"
"2023-05-13 22:00",21.6864260041008,"Working","OW424"
"2023-05-13 23:00",21.6804205765288,"Working","OW424"
"2023-05-14 00:00",21.6764151489567,"Working","OW424"
"2023-05-14 01:00",21.6714097213846,"Working","OW424"
"2023-05-14 02:00",21.6714042938126,"Working","OW424"
"2023-05-14 03:00",21.6713988662405,"Working","OW424"
"2023-05-14 04:00",21.6743934386684,"Working","OW424"
"2023-05-14 05:00",21.6783880110964,"Working","OW424"
"2023-05-14 06:00",21.6833825835243,"Working","OW424"
"2023-05-14 07:00",21.6873771559522,"Working","OW424"
"2023-05-14 08:00",21.6923717283802,"Working","OW424"
"2023-05-14 09:00",21.6993663008081,"Working","OW424"
"2023-05-14 10:00",21.704360873236,"Working","OW424"
"2023-05-14 11:00",21.704355445664,"Working","OW424"
"2023-05-14 12:00",21.7023500180919,"Working","OW424"
"2023-05-14 13:00",21.6933445905198,"Working","OW424"
"2023-05-14 14:00",21.6803391629478,"Working","OW424"
"2023-05-14 15:00",21.6643337353757,"Working","OW424"
"2023-05-14 16:00",21.6503283078036,"Working","OW424"
"2023-05-14 17:00",21.6403228802316,"Working","OW424"
"2023-05-14 18:00",21.6353174526595,"Working","OW424"
"2023-05-14 19:00",21.6313120250874,"Working","OW424"
"2023-05-14 20:00",21.6313065975154,"Working","OW424"
"2023-05-14 21:00",21.6313011699433,"Working","OW424"
"2023-05-14 22:00",21.6332957423712,"Working","OW424"
"2023-05-14 23:00",21.6362903147992,"Working","OW424"
"2023-05-15 00:00",21.6392848872271,"Working","OW424"
"2023-05-15 01:00",21.644279459655,"Working","OW424"
"2023-05-15 02:00",21.649274032083,"Working","OW424"
"2023-05-15 03:00",21.6552686045109,"Working","OW424"
"2023-05-15 04:00",21.6612631769388,"Working","OW424"
"2023-05-15 05:00",21.6672577493668,"Working","OW424"
"2023-05-15 06:00",21.6732523217947,"Working","OW424"
"2023-05-15 07:00",21.6802468942226,"Working","OW424"
"2023-05-15 08:00",21.6872414666506,"Working","OW424"
"2023-05-15 09:00",21.6922360390785,"Working","OW424"
"2023-05-15 10:00",21.6992306115065,"Working","OW424"
"2023-05-15 11:00",21.7062251839344,"Working","OW424"
"2023-05-15 12:00",21.7112197563623,"Working","OW424"
"2023-05-15 13:00",21.7172143287903,"Working","OW424"
"2023-05-15 14:00",21.7212089012182,"Working","OW424"
"2023-05-15 15:00",21.7222034736461,"Working","OW424"
"2023-05-15 16:00",21.7191980460741,"Working","OW424"
"2023-05-15 17:00",21.711192618502,"Working","OW424"
"2023-05-15 18:00",21.7011871909299,"Working","OW424"
"2023-05-15 19:00",21.6941817633579,"Working","OW424"
"2023-05-15 20:00",21.6891763357858,"Working","OW424"
"2023-05-15 21:00",21.6851709082137,"Working","OW424"
"2023-05-15 22:00",21.6831654806417,"Working","OW424"
"2023-05-15 23:00",21.6821600530696,"Working","OW424"
"2023-05-16 00:00",21.6821546254975,"Working","OW424"
"2023-05-16 01:00",21.6811491979255,"Working","OW424"
"2023-05-16 02:00",21.6831437703534,"Working","OW424"
"2023-05-16 03:00",21.6851383427813,"Working","OW424"
"2023-05-16 04:00",21.6881329152093,"Working","OW424"
"2023-05-16 05:00",21.6931274876372,"Working","OW424"
"2023-05-16 06:00",21.6971220600651,"Working","OW424"
"2023-05-16 07:00",21.7031166324931,"Working","OW424"
"2023-05-16 08:00",21.710111204921,"Working","OW424"
"2023-05-16 09:00",21.7191057773489,"Working","OW424"
"2023-05-16 10:00",21.7281003497769,"Working","OW424"
"2023-05-16 11:00",21.7370949222048,"Working","OW424"
"2023-05-16 12:00",21.7450894946327,"Working","OW424"
"2023-05-16 13:00",21.7520840670607,"Working","OW424"
"2023-05-16 14:00",21.7600786394886,"Working","OW424"
"2023-05-16 15:00",21.7670732119165,"Working","OW424"
"2023-05-16 16:00",21.7740677843445,"Working","OW424"
"2023-05-16 17:00",21.7800623567724,"Working","OW424"
"2023-05-16 18:00",21.7870569292003,"Working","OW424"
"2023-05-16 19:00",21.7930515016283,"Working","OW424"
"2023-05-16 20:00",21.7970460740562,"Working","OW424"
"2023-05-16 21:00",21.8020406464841,"Working","OW424"
"2023-05-16 22:00",21.8050352189121,"Working","OW424"
"2023-05-16 23:00",21.80702979134,"Working","OW424"
"2023-05-17 00:00",21.8040243637679,"Working","OW424"
"2023-05-17 01:00",21.7990189361959,"Working","OW424"
"2023-05-17 02:00",21.7950135086238,"Working","OW424"
"2023-05-17 03:00",21.7920080810517,"Working","OW424"
"2023-05-17 04:00",21.7900026534797,"Working","OW424"
"2023-05-17 05:00",21.7889972259076,"Working","OW424"
"2023-05-17 06:00",21.7909917983355,"Working","OW424"
"2023-05-17 07:00",21.7929863707635,"Working","OW424"
"2023-05-17 08:00",21.7949809431914,"Working","OW424"
"2023-05-17 09:00",21.7949755156193,"Working","OW424"
"2023-05-17 10:00",21.7969700880473,"Working","OW424"
"2023-05-17 11:00",21.7979646604752,"Working","OW424"
"2023-05-17 12:00",21.7999592329031,"Working","OW424"
"2023-05-17 13:00",21.8019538053311,"Working","OW424"
"2023-05-17 14:00",21.803948377759,"Working","OW424"
"2023-05-17 15:00",21.8059429501869,"Working","OW424"
"2023-05-17 16:00",21.8069375226149,"Working","OW424"
"2023-05-17 17:00",21.8079320950428,"Working","OW424"
"2023-05-17 18:00",21.8069266674708,"Working","OW424"
"2023-05-17 19:00",21.8079212398987,"Working","OW424"
"2023-05-17 20:00",21.8069158123266,"Working","OW424"
"2023-05-17 21:00",21.8059103847546,"Working","OW424"
"2023-05-17 22:00",21.7999049571825,"Working","OW424"
"2023-05-17 23:00",21.7918995296104,"Working","OW424"
"2023-05-18 00:00",21.7788941020384,"Working","OW424"
"2023-05-18 01:00",21.7618886744663,"Working","OW424"
"2023-05-18 02:00",21.7428832468942,"Working","OW424"
"2023-05-18 03:00",21.7238778193222,"Working","OW424"
"2023-05-18 04:00",21.7098723917501,"Working","OW424"
"2023-05-18 05:00",21.699866964178,"Working","OW424"
"2023-05-18 06:00",21.694861536606,"Working","OW424"
"2023-05-18 07:00",21.6938561090339,"Working","OW424"
"2023-05-18 08:00",21.6938506814618,"Working","OW424"
"2023-05-18 09:00",21.6938452538898,"Working","OW424"
"2023-05-18 10:00",21.6928398263177,"Working","OW424"
"2023-05-18 11:00",21.6858343987456,"Working","OW424"
"2023-05-18 12:00",21.6758289711736,"Working","OW424"
"2023-05-18 13:00",21.6638235436015,"Working","OW424"
"2023-05-18 14:00",21.6478181160294,"Working","OW424"
"2023-05-18 15:00",21.6318126884574,"Working","OW424"
"2023-05-18 16:00",21.6198072608853,"Working","OW424"
"2023-05-18 17:00",21.6128018333132,"Working","OW424"
"2023-05-18 18:00",21.6097964057412,"Working","OW424"
"2023-05-18 19:00",21.6127909781691,"Working","OW424"
"2023-05-18 20:00",21.616785550597,"Working","OW424"
"2023-05-18 21:00",21.622780123025,"Working","OW424"
"2023-05-18 22:00",21.6297746954529,"Working","OW424"
"2023-05-18 23:00",21.6317692678808,"Working","OW424"
"2023-05-19 00:00",21.6287638403088,"Working","OW424"
"2023-05-19 01:00",21.6247584127367,"Working","OW424"
"2023-05-19 02:00",21.6207529851646,"Working","OW424"
"2023-05-19 03:00",21.6207475575926,"Working","OW424"
"2023-05-19 04:00",21.6227421300205,"Working","OW424"
"2023-05-19 05:00",21.6277367024484,"Working","OW424"
"2023-05-19 06:00",21.6357312748764,"Working","OW424"
"2023-05-19 07:00",21.6447258473043,"Working","OW424"
"2023-05-19 08:00",21.6547204197322,"Working","OW424"
"2023-05-19 09:00",21.6647149921602,"Working","OW424"
"2023-05-19 10:00",21.6747095645881,"Working","OW424"
"2023-05-19 11:00",21.684704137016,"Working","OW424"
"2023-05-19 12:00",21.693698709444,"Working","OW424"
"2023-05-19 13:00",21.7036932818719,"Working","OW424"
"2023-05-19 14:00",21.7136878542998,"Working","OW424"
"2023-05-19 15:00",21.7216824267278,"Working","OW424"
"2023-05-19 16:00",21.7266769991557,"Working","OW424"
"2023-05-19 17:00",21.7256715715836,"Working","OW424"
"2023-05-19 18:00",21.7206661440116,"Working","OW424"
"2023-05-19 19:00",21.7146607164395,"Working","OW424"
"2023-05-19 20:00",21.7096552888674,"Working","OW424"
"2023-05-19 21:00",21.7076498612954,"Working","OW424"
"2023-05-19 22:00",21.7076444337233,"Working","OW424"
"2023-05-19 23:00",21.7096390061512,"Working","OW424"
"2023-05-20 00:00",21.7136335785792,"Working","OW424"
"2023-05-20 01:00",21.7146281510071,"Working","OW424"
"2023-05-20 02:00",21.7126227234351,"Working","OW424"
"2023-05-20 03:00",21.706617295863,"Working","OW424"
"2023-05-20 04:00",21.6976118682909,"Working","OW424"
"2023-05-20 05:00",21.6866064407189,"Working","OW424"
"2023-05-20 06:00",21.6756010131468,"Working","OW424"
"2023-05-20 07:00",21.6685955855747,"Working","OW424"
"2023-05-20 08:00",21.6675901580027,"Working","OW424"
"2023-05-20 09:00",21.6695847304306,"Working","OW424"
"2023-05-20 10:00",21.6735793028585,"Working","OW424"
"2023-05-20 11:00",21.6795738752865,"Working","OW424"
"2023-05-20 12:00",21.6855684477144,"Working","OW424"
"2023-05-20 13:00",21.6935630201423,"Working","OW424"
"2023-05-20 14:00",21.6995575925703,"Working","OW424"
"2023-05-20 15:00",21.7005521649982,"Working","OW424"
"2023-05-20 16:00",21.6985467374261,"Working","OW424"
"2023-05-20 17:00",21.6915413098541,"Working","OW424"
"2023-05-20 18:00",21.683535882282,"Working","OW424"
"2023-05-20 19:00",21.6775304547099,"Working","OW424"
"2023-05-20 20:00",21.6745250271379,"Working","OW424"
"2023-05-20 21:00",21.6755195995658,"Working","OW424"
"2023-05-20 22:00",21.6735141719937,"Working","OW424"
"2023-05-20 23:00",21.6755087444217,"Working","OW424"
"2023-05-21 00:00",21.6775033168496,"Working","OW424"
"2023-05-21 01:00",21.6764978892775,"Working","OW424"
"2023-05-21 02:00",21.6714924617055,"Working","OW424"
"2023-05-21 03:00",21.6654870341334,"Working","OW424"
"2023-05-21 04:00",21.6554816065613,"Working","OW424"
"2023-05-21 05:00",21.6424761789893,"Working","OW424"
"2023-05-21 06:00",21.6344707514172,"Working","OW424"
"2023-05-21 07:00",21.6294653238451,"Working","OW424"
"2023-05-21 08:00",21.6304598962731,"Working","OW424"
"2023-05-21 09:00",21.632454468701,"Working","OW424"
"2023-05-21 10:00",21.6404490411289,"Working","OW424"
"2023-05-21 11:00",21.6474436135569,"Working","OW424"
"2023-05-21 13:00",21.6614327584127,"Working","OW424"
"2023-05-21 14:00",21.6624273308407,"Working","OW424"
"2023-05-21 15:00",21.6594219032686,"Working","OW424"
"2023-05-21 16:00",21.6544164756965,"Working","OW424"
"2023-05-21 17:00",21.6494110481245,"Working","OW424"
"2023-05-21 18:00",21.6474056205524,"Working","OW424"
"2023-05-21 19:00",21.6484001929803,"Working","OW424"
"2023-05-21 20:00",21.6523947654083,"Working","OW424"
"2023-05-21 21:00",21.6583893378362,"Working","OW424"
"2023-05-21 22:00",21.6643839102641,"Working","OW424"
"2023-05-21 23:00",21.6723784826921,"Working","OW424"
"2023-05-22 00:00",21.67937305512,"Working","OW424"
"2023-05-22 01:00",21.6823676275479,"Working","OW424"
"2023-05-22 02:00",21.6813621999759,"Working","OW424"
"2023-05-22 03:00",21.6773567724038,"Working","OW424"
"2023-05-22 04:00",21.6753513448317,"Working","OW424"
"2023-05-22 05:00",21.6753459172597,"Working","OW424"
"2023-05-22 06:00",21.6793404896876,"Working","OW424"
"2023-05-22 07:00",21.6833350621155,"Working","OW424"
"2023-05-22 08:00",21.6883296345435,"Working","OW424"
"2023-05-22 09:00",21.6943242069714,"Working","OW424"
"2023-05-22 10:00",21.7013187793994,"Working","OW424"
"2023-05-22 11:00",21.7073133518273,"Working","OW424"
"2023-05-22 12:00",21.7143079242552,"Working","OW424"
"2023-05-22 13:00",21.7213024966832,"Working","OW424"
"2023-05-22 14:00",21.7282970691111,"Working","OW424"
"2023-05-22 15:00",21.732291641539,"Working","OW424"
"2023-05-22 16:00",21.735286213967,"Working","OW424"
"2023-05-22 17:00",21.7332807863949,"Working","OW424"
"2023-05-22 18:00",21.7272753588228,"Working","OW424"
"2023-05-22 19:00",21.7172699312508,"Working","OW424"
"2023-05-22 20:00",21.7032645036787,"Working","OW424"
"2023-05-22 21:00",21.6912590761066,"Working","OW424"
"2023-05-22 22:00",21.6822536485346,"Working","OW424"
"2023-05-22 23:00",21.6772482209625,"Working","OW424"
"2023-05-23 00:00",21.6752427933904,"Working","OW424"
"2023-05-23 01:00",21.6762373658184,"Working","OW424"
"2023-05-23 02:00",21.6802319382463,"Working","OW424"
"2023-05-23 03:00",21.6852265106742,"Working","OW424"
"2023-05-23 04:00",21.6902210831022,"Working","OW424"
"2023-05-23 05:00",21.6972156555301,"Working","OW424"
"2023-05-23 06:00",21.705210227958,"Working","OW424"
"2023-05-23 07:00",21.715204800386,"Working","OW424"
"2023-05-23 08:00",21.7251993728139,"Working","OW424"
"2023-05-23 09:00",21.7331939452418,"Working","OW424"
"2023-05-23 10:00",21.7401885176698,"Working","OW424"
"2023-05-23 11:00",21.7471830900977,"Working","OW424"
"2023-05-23 12:00",21.7531776625256,"Working","OW424"
"2023-05-23 13:00",21.7591722349536,"Working","OW424"
"2023-05-23 14:00",21.7651668073815,"Working","OW424"
"2023-05-23 15:00",21.7671613798094,"Working","OW424"
"2023-05-23 16:00",21.7661559522374,"Working","OW424"
"2023-05-23 17:00",21.7601505246653,"Working","OW424"
"2023-05-23 18:00",21.7491450970932,"Working","OW424"
"2023-05-23 19:00",21.7391396695212,"Working","OW424"
"2023-05-23 20:00",21.7311342419491,"Working","OW424"
"2023-05-23 21:00",21.726128814377,"Working","OW424"
"2023-05-23 22:00",21.723123386805,"Working","OW424"
"2023-05-23 23:00",21.7231179592329,"Working","OW424"
"2023-05-24 00:00",21.7261125316608,"Working","OW424"
"2023-05-24 01:00",21.7281071040888,"Working","OW424"
"2023-05-24 02:00",21.7311016765167,"Working","OW424"
"2023-05-24 03:00",21.7300962489446,"Working","OW424"
"2023-05-24 04:00",21.7270908213726,"Working","OW424"